CZ-6A DEB, 56590

Orbit data source: Space-Track

CZ-6A DEB, 56590 is space debris in SSO originally from a launch on Fri, 11 Nov 2022 UTC launched from the Taiyaun Space Center, China (TSC). Debris objects in space refer to the collection of defunct objects orbiting the Earth. Examples of debris include non-operational satellites, rocket bodies, and fragments generated from explosions, collisions, or faulty payload assembly.

Loading next visibility...
Identifier
56590, 2022-151ADN
Orbit
SSO
Country
Flag of CNCN / PRC
Related business
Manufacturer
SAST
Mission
Spacecraft
Bus & Motor
Unknown
Mass
Unknown
Launch date (UTC)
2022-11-11 (4 years ago)
Launch vehicle
Unknown
Launch site
Taiyaun Space Center, China (TSC)
Object type
Payload
Rocket body
Debris
Shape & HBR
Unknown shape, 0.1 m
Radar Cross Section
Medium (>0.1 m² and <1 m²)

Expand to show TLE details & history
Last TLE update: 2 days ago

TLE from 2 days ago
0 CZ-6A DEB
1 56590U 22151ADN 26171.31541093  .00000961  00000-0  38166-3 0  9992
2 56590  98.6778 189.4997 0040453  78.3604 282.2114 14.30601169164410
Epoch: 2026-06-20T07:34Z
TLE epoch observation values (Epoch: 2026-06-20T07:34:11.504Z)
Latitude
-0.00007°
Longitude
167.41998°
Altitude
786.63 km
Speed
7.464 km/s
True Right ascension
12h 37m 59s
True Declination
0° 00' 00"
Sunlit
Object was in daylight at epoch
Visualization orbit readout
Latitude
Unknown
Longitude
Unknown
Altitude
Unknown
Speed
Unknown
Apparent Right ascension
Unknown
Apparent Declination
Unknown
Sunlit
N/A
Visualization observer readout
Local Sidereal Time
21:34:32
Azimuth
Unknown
Elevation
Unknown
Doppler factor
Unknown
Orbital elements
Apogee altitude
815.849 km
Perigee altitude
757.88 km
Semi-major axis
7,165.002 km
Eccentricity
0.00405
Inclination
98.6778°
RAAN
189.4997°
Arg. of periapsis
78.3604°
True anomaly
281.75785°
Mean anomaly
282.2114°
Eccentric anomaly
281.98467°
Mean motion
3.57865 °/min
Orbital period
100.6 mins
BSTAR
0.00038166
Loading maneuver chart data...
Computing Atmospheric mass density...
Loading historical data...
Loading historical data...
Loading historical data...
Loading historical data...
Loading historical data...
Loading historical data...
Loading historical data...

Documentation

Showing up to 5 results
|